Temp
-7 -7 -8 -8 -7 -8 -7 -7 -7 -7 -7 -7 -7 -8 -8 -8 -8 -7 -7 -7 -7 -7 -7 -7 -7 -7 -7 -7 -6 -6 -7 -6 -6 -6 -6 -6 -6 -6 -5 -5 -5 -5 -5 -5 -5 -5 -5 -5 -5
-8 -8 -7 -8 -8 -8 -8 -7 -7 -7 -7 -8 -7 -8 -8 -8 -8 -8 -7 -7 -7 -7 -7 -7 -7 -7 -7 -7 -7 -7 -7 -7 -6 -6 -6 -6 -6 -6 -6 -5 -5 -5 -5 -5 -5 -5 -5 -5 -5
-7 -7 -7 -8 -8 -8 -7 -7 -7 -7 -7 -7 -7 -8 -8 -8 -8 -9 -9 -8 -8 -7 -7 -8 -8 -7 -7 -7 -7 -7 -7 -7 -7 -7 -7 -7 -7 -6 -6 -6 -5 -5 -5 -5 -5 -5 -5 -5 -5
-7 -7 -7 -7 -7 -7 -7 -7 -7 -8 -7 -7 -7 -8 -8 -9 -9 -9 -10 -9 -9 -8 -8 -8 -8 -8 -8 -7 -7 -7 -7 -7 -7 -7 -7 -7 -7 -7 -6 -6 -6 -6 -6 -5 -5 -5 -5 -5 -5
-7 -7 -7 -7 -7 -7 -7 -7 -8 -8 -8 -8 -8 -8 -9 -9 -10 -10 -10 -10 -10 -9 -9 -8 -8 -8 -8 -8 -8 -7 -8 -7 -7 -7 -7 -7 -7 -7 -7 -6 -6 -6 -6 -6 -5 -5 -5 -5 -5
-7 -7 -7 -7 -7 -7 -7 -8 -8 -8 -8 -8 -9 -9 -10 -10 -11 -11 -10 -11 -10 -10 -9 -10 -9 -9 -9 -9 -8 -8 -7 -8 -7 -7 -8 -8 -7 -7 -7 -7 -7 -6 -6 -6 -5 -5 -5 -5 -5
-7 -7 -7 -8 -8 -8 -8 -8 -8 -8 -9 -9 -10 -11 -11 -11 -11 -11 -11 -12 -12 -11 -10 -10 -10 -10 -10 -10 -9 -9 -8 -8 -8 -8 -8 -7 -8 -8 -7 -7 -7 -7 -6 -6 -6 -6 -6 -6 -6
-7 -7 -8 -8 -8 -8 -8 -8 -8 -9 -10 -11 -11 -11 -12 -12 -12 -12 -12 -12 -13 -12 -11 -10 -10 -11 -10 -11 -10 -9 -9 -8 -8 -8 -8 -8 -7 -8 -8 -7 -7 -7 -6 -6 -6 -6 -6 -6 -6
-7 -8 -8 -8 -8 -8 -8 -9 -9 -10 -11 -12 -12 -12 -12 -12 -12 -12 -12 -12 -12 -13 -12 -11 -11 -11 -10 -10 -10 -9 -9 -9 -8 -9 -8 -8 -8 -8 -8 -8 -8 -7 -7 -6 -7 -6 -6 -6 -6
-8 -8 -8 -8 -8 -9 -9 -9 -10 -11 -12 -12 -13 -13 -13 -13 -13 -13 -12 -12 -12 -12 -11 -11 -10 -12 -10 -10 -10 -10 -9 -9 -9 -9 -9 -9 -8 -8 -8 -8 -8 -8 -7 -7 -7 -7 -7 -7 -7
-8 -8 -8 -8 -8 -9 -9 -9 -10 -12 -12 -13 -13 -13 -13 -13 -13 -13 -13 -13 -13 -13 -12 -12 -11 -11 -11 -10 -10 -10 -10 -9 -10 -10 -10 -9 -9 -8 -8 -8 -8 -8 -8 -7 -7 -7 -7 -7 -7
-8 -8 -8 -8 -9 -9 -9 -10 -10 -12 -13 -13 -14 -14 -14 -14 -13 -13 -13 -13 -12 -13 -13 -12 -12 -12 -11 -11 -10 -9 -8 -10 -9 -10 -10 -10 -9 -9 -9 -8 -9 -9 -8 -8 -8 -7 -7 -7 -7
-8 -8 -8 -9 -9 -9 -9 -10 -11 -13 -13 -13 -14 -14 -14 -14 -14 -13 -13 -13 -13 -13 -13 -12 -12 -12 -12 -12 -10 -10 -9 -9 -10 -10 -10 -10 -10 -9 -9 -9 -9 -9 -9 -8 -8 -8 -8 -8 -8
-8 -8 -9 -9 -9 -9 -9 -10 -11 -12 -14 -14 -14 -14 -14 -14 -14 -13 -13 -13 -13 -14 -14 -13 -13 -13 -12 -12 -11 -9 -9 -10 -10 -10 -11 -10 -10 -10 -9 -9 -9 -10 -10 -9 -9 -9 -8 -8 -8
-8 -9 -9 -9 -9 -10 -10 -11 -11 -13 -14 -14 -14 -14 -14 -14 -14 -13 -13 -14 -13 -13 -14 -13 -13 -13 -12 -11 -11 -9 -9 -9 -10 -10 -12 -11 -11 -10 -10 -10 -10 -10 -10 -9 -9 -9 -9 -9 -9
-9 -9 -9 -9 -9 -9 -10 -11 -12 -13 -14 -14 -14 -14 -14 -14 -14 -14 -14 -13 -14 -14 -14 -13 -13 -13 -13 -11 -12 -10 -10 -9 -10 -11 -12 -11 -11 -11 -10 -10 -10 -10 -10 -10 -10 -10 -9 -9 -9
-9 -9 -9 -9 -9 -9 -10 -11 -12 -13 -13 -14 -14 -14 -14 -14 -14 -13 -14 -14 -14 -14 -14 -14 -13 -13 -13 -11 -12 -10 -10 -10 -10 -10 -12 -11 -11 -11 -11 -10 -10 -10 -10 -10 -10 -10 -10 -10 -10
-9 -9 -9 -9 -9 -9 -10 -11 -12 -13 -14 -14 -14 -14 -15 -15 -15 -14 -14 -13 -14 -14 -14 -13 -14 -14 -13 -12 -12 -11 -10 -10 -10 -10 -12 -12 -11 -11 -11 -11 -11 -11 -11 -11 -10 -10 -10 -10 -10
-9 -9 -9 -9 -9 -10 -10 -11 -12 -13 -14 -14 -14 -14 -15 -15 -15 -15 -14 -14 -14 -14 -14 -13 -14 -14 -14 -12 -12 -10 -11 -10 -10 -10 -11 -12 -11 -11 -11 -11 -11 -11 -11 -11 -11 -11 -11 -10 -10
-9 -9 -9 -9 -9 -10 -10 -11 -12 -13 -13 -13 -13 -14 -14 -15 -16 -16 -15 -15 -14 -15 -14 -14 -14 -14 -15 -14 -12 -11 -11 -10 -11 -11 -11 -12 -12 -12 -12 -11 -11 -11 -11 -11 -11 -11 -11 -11 -10
-9 -10 -10 -10 -9 -10 -10 -11 -12 -13 -13 -13 -13 -14 -15 -16 -16 -16 -15 -15 -15 -14 -14 -14 -14 -14 -14 -13 -13 -12 -11 -11 -11 -11 -11 -11 -11 -11 -11 -11 -11 -11 -11 -11 -11 -11 -11 -11 -10
-9 -10 -10 -10 -10 -10 -10 -11 -12 -13 -13 -14 -14 -15 -16 -16 -17 -17 -16 -16 -15 -15 -14 -14 -14 -14 -14 -14 -13 -13 -12 -12 -11 -11 -11 -11 -11 -11 -11 -11 -10 -11 -11 -11 -11 -11 -11 -10 -11
-10 -10 -10 -10 -10 -10 -10 -10 -11 -13 -13 -14 -14 -14 -15 -15 -17 -17 -16 -15 -15 -15 -15 -14 -14 -14 -14 -15 -14 -13 -13 -12 -12 -11 -11 -11 -11 -10 -11 -11 -10 -10 -11 -11 -11 -11 -11 -11 -11
-10 -10 -10 -10 -10 -10 -10 -11 -11 -12 -12 -13 -13 -14 -15 -15 -16 -16 -15 -14 -14 -15 -14 -14 -14 -14 -14 -14 -14 -14 -14 -14 -12 -11 -11 -11 -12 -11 -11 -11 -11 -11 -11 -11 -11 -11 -11 -11 -11
-10 -10 -10 -10 -11 -10 -11 -11 -11 -12 -12 -13 -13 -14 -14 -15 -15 -16 -15 -15 -15 -15 -15 -14 -14 -14 -14 -13 -13 -13 -13 -13 -12 -13 -12 -11 -12 -12 -12 -12 -11 -11 -11 -12 -12 -11 -11 -11 -12
-10 -10 -10 -10 -10 -10 -11 -11 -11 -11 -12 -12 -13 -13 -14 -15 -15 -15 -15 -15 -15 -15 -14 -14 -14 -14 -14 -14 -13 -13 -13 -12 -13 -12 -12 -12 -11 -12 -12 -12 -11 -11 -11 -12 -11 -11 -11 -11 -11
-10 -10 -10 -10 -11 -11 -11 -11 -11 -11 -12 -12 -12 -13 -14 -14 -15 -15 -15 -15 -15 -15 -15 -14 -14 -14 -14 -14 -14 -13 -13 -12 -12 -12 -12 -12 -11 -11 -11 -12 -11 -12 -12 -12 -12 -11 -11 -11 -11
-10 -10 -10 -11 -10 -11 -11 -11 -11 -11 -12 -11 -12 -12 -13 -14 -15 -15 -15 -15 -15 -15 -15 -15 -14 -14 -14 -14 -14 -13 -14 -13 -12 -12 -12 -11 -11 -12 -12 -12 -12 -12 -12 -12 -12 -12 -12 -12 -12
-10 -10 -11 -10 -11 -11 -11 -11 -11 -11 -11 -12 -12 -12 -12 -13 -14 -14 -15 -15 -15 -15 -15 -14 -14 -14 -14 -14 -14 -15 -14 -14 -14 -13 -13 -12 -11 -12 -11 -12 -12 -12 -12 -13 -12 -12 -12 -13 -12
-11 -11 -11 -10 -11 -10 -10 -11 -11 -11 -11 -12 -12 -12 -12 -12 -13 -14 -14 -14 -15 -15 -15 -15 -14 -14 -15 -14 -15 -15 -15 -15 -15 -14 -14 -13 -13 -12 -12 -12 -13 -13 -13 -13 -12 -13 -13 -12 -12
Height
5856 5856 5857 5857 5861 5859 5857 5858 5855 5855 5857 5858 5858 5857 5857 5857 5859 5863 5860 5862 5863 5864 5865 5868 5870 5871 5872 5874 5874 5875 5877 5879 5880 5882 5882 5883 5885 5886 5887 5888 5889 5890 5890 5890 5890 5890 5890 5890 5891
5854 5854 5855 5854 5857 5856 5855 5853 5853 5854 5853 5853 5853 5854 5853 5853 5853 5856 5856 5856 5858 5860 5861 5863 5865 5867 5868 5869 5871 5872 5873 5875 5878 5879 5880 5881 5883 5885 5886 5887 5888 5888 5889 5889 5888 5888 5889 5889 5890
5851 5852 5853 5852 5852 5852 5851 5850 5850 5850 5849 5849 5848 5848 5849 5849 5848 5849 5852 5852 5852 5855 5856 5858 5860 5862 5863 5865 5866 5868 5869 5871 5874 5876 5877 5879 5881 5882 5883 5885 5886 5887 5887 5887 5887 5887 5888 5888 5888
5848 5849 5850 5849 5848 5848 5847 5847 5847 5845 5842 5842 5841 5841 5841 5842 5843 5843 5844 5846 5847 5849 5851 5854 5855 5856 5858 5860 5861 5863 5865 5867 5869 5872 5875 5876 5878 5880 5881 5883 5884 5885 5884 5885 5886 5887 5887 5887 5887
5845 5845 5845 5845 5844 5844 5843 5842 5840 5838 5835 5834 5833 5833 5834 5833 5834 5837 5836 5837 5839 5841 5843 5847 5849 5851 5852 5853 5855 5858 5861 5862 5865 5868 5871 5874 5875 5877 5879 5880 5882 5883 5882 5883 5884 5886 5886 5886 5886
5841 5841 5842 5842 5841 5839 5837 5836 5833 5832 5830 5826 5824 5824 5824 5825 5825 5826 5828 5828 5831 5834 5835 5839 5841 5842 5846 5848 5850 5853 5856 5858 5860 5863 5866 5870 5872 5874 5876 5878 5879 5880 5880 5880 5882 5884 5884 5885 5886
5838 5838 5838 5838 5836 5834 5832 5829 5827 5825 5822 5819 5818 5816 5816 5817 5818 5817 5819 5821 5823 5825 5828 5831 5835 5837 5840 5841 5843 5846 5849 5852 5856 5859 5862 5865 5869 5871 5873 5874 5876 5877 5877 5878 5879 5881 5882 5883 5884
5836 5836 5834 5834 5832 5829 5826 5821 5819 5817 5813 5812 5809 5808 5808 5808 5809 5810 5810 5812 5814 5817 5820 5823 5825 5830 5833 5837 5839 5840 5843 5846 5849 5853 5856 5860 5864 5867 5869 5871 5872 5874 5874 5876 5877 5878 5880 5881 5882
5832 5832 5831 5829 5827 5823 5819 5816 5810 5807 5804 5802 5802 5801 5800 5798 5798 5801 5803 5803 5804 5806 5810 5814 5817 5823 5827 5829 5831 5832 5836 5839 5842 5847 5850 5854 5859 5861 5865 5868 5869 5870 5871 5872 5875 5876 5877 5879 5880
5829 5827 5826 5825 5822 5819 5814 5809 5804 5799 5795 5793 5792 5790 5789 5790 5791 5792 5794 5796 5796 5798 5797 5803 5807 5811 5815 5820 5823 5826 5826 5829 5834 5838 5843 5847 5851 5856 5860 5863 5866 5868 5868 5870 5871 5873 5874 5876 5877
5825 5823 5822 5820 5817 5813 5809 5803 5797 5792 5788 5784 5782 5780 5779 5780 5782 5783 5784 5785 5787 5790 5794 5793 5797 5801 5805 5811 5815 5818 5819 5819 5822 5830 5836 5841 5845 5849 5853 5857 5861 5863 5864 5866 5868 5870 5871 5873 5874
5821 5819 5816 5815 5812 5808 5803 5797 5791 5785 5782 5778 5774 5773 5772 5771 5772 5774 5775 5776 5778 5779 5784 5787 5789 5795 5800 5797 5801 5802 5792 5809 5813 5820 5828 5835 5838 5843 5848 5852 5855 5858 5859 5862 5864 5866 5868 5869 5871
5817 5815 5813 5809 5806 5801 5796 5790 5784 5778 5774 5771 5768 5767 5766 5765 5764 5765 5767 5768 5767 5768 5771 5777 5781 5786 5791 5793 5792 5797 5800 5794 5804 5810 5820 5826 5832 5837 5842 5846 5851 5854 5855 5857 5859 5861 5864 5866 5867
5814 5812 5810 5806 5801 5796 5791 5785 5778 5773 5767 5765 5762 5760 5760 5759 5758 5757 5758 5759 5759 5759 5761 5767 5772 5776 5780 5782 5787 5791 5791 5793 5797 5802 5810 5818 5825 5831 5835 5840 5846 5850 5851 5853 5856 5858 5860 5862 5864
5811 5809 5806 5803 5798 5793 5787 5781 5775 5768 5763 5759 5757 5753 5752 5751 5749 5749 5749 5750 5753 5752 5755 5758 5761 5764 5770 5773 5779 5783 5780 5782 5789 5794 5803 5811 5818 5825 5829 5834 5840 5845 5847 5850 5852 5855 5857 5859 5861
5807 5806 5802 5798 5794 5789 5784 5777 5772 5766 5761 5755 5750 5746 5743 5742 5741 5740 5739 5741 5744 5746 5749 5752 5756 5758 5759 5764 5768 5772 5773 5767 5780 5787 5797 5804 5812 5819 5825 5830 5835 5839 5843 5846 5848 5851 5853 5856 5857
5804 5802 5799 5795 5791 5785 5780 5775 5769 5762 5755 5748 5742 5738 5735 5732 5729 5729 5730 5732 5735 5739 5742 5746 5749 5750 5754 5756 5760 5764 5767 5772 5776 5782 5791 5800 5807 5814 5820 5826 5831 5834 5837 5841 5844 5846 5848 5851 5853
5800 5797 5795 5792 5788 5782 5777 5771 5763 5756 5749 5742 5737 5732 5726 5721 5717 5717 5718 5722 5726 5731 5734 5739 5743 5746 5749 5748 5753 5759 5765 5768 5773 5779 5785 5795 5802 5808 5814 5820 5824 5828 5832 5835 5838 5841 5843 5845 5847
5796 5794 5791 5789 5785 5780 5773 5766 5759 5751 5744 5737 5730 5724 5717 5712 5707 5705 5708 5710 5716 5721 5726 5732 5737 5741 5744 5744 5754 5757 5761 5766 5771 5775 5782 5790 5798 5804 5809 5814 5817 5821 5825 5829 5833 5835 5837 5839 5841
5792 5791 5789 5786 5782 5778 5771 5762 5756 5747 5739 5731 5723 5715 5707 5701 5695 5694 5696 5702 5707 5713 5721 5727 5732 5738 5740 5746 5750 5756 5760 5765 5770 5774 5779 5784 5792 5798 5803 5807 5812 5816 5820 5823 5827 5829 5832 5833 5834
5789 5788 5786 5783 5778 5774 5769 5761 5754 5746 5736 5727 5718 5710 5701 5692 5685 5683 5688 5695 5702 5709 5716 5722 5729 5735 5737 5744 5750 5754 5760 5764 5768 5772 5776 5781 5787 5792 5797 5799 5806 5810 5814 5817 5820 5824 5825 5826 5828
5785 5785 5783 5779 5776 5772 5767 5762 5753 5745 5735 5724 5716 5707 5698 5687 5677 5676 5684 5693 5700 5706 5713 5719 5725 5728 5735 5738 5745 5748 5756 5758 5765 5771 5774 5773 5779 5787 5790 5793 5798 5804 5808 5812 5814 5817 5818 5820 5820
5783 5781 5780 5776 5773 5770 5764 5759 5752 5745 5736 5726 5717 5708 5699 5690 5682 5681 5687 5695 5700 5705 5712 5716 5722 5725 5730 5736 5740 5745 5750 5754 5758 5761 5769 5769 5775 5780 5784 5786 5792 5797 5802 5804 5809 5810 5811 5812 5813
5779 5779 5777 5774 5771 5768 5762 5758 5752 5745 5736 5727 5719 5711 5704 5698 5693 5691 5694 5697 5702 5705 5710 5715 5721 5724 5731 5734 5740 5744 5748 5752 5756 5758 5763 5767 5770 5774 5779 5782 5787 5791 5793 5796 5800 5803 5805 5805 5806
5776 5775 5774 5772 5768 5765 5761 5757 5752 5745 5737 5730 5722 5716 5709 5704 5700 5699 5698 5699 5703 5707 5711 5716 5721 5724 5729 5734 5738 5742 5746 5749 5752 5755 5759 5763 5767 5770 5774 5778 5781 5784 5787 5789 5792 5794 5796 5795 5796
5773 5772 5771 5768 5765 5763 5760 5756 5752 5746 5739 5733 5725 5720 5715 5710 5707 5704 5704 5705 5706 5709 5713 5717 5720 5725 5727 5731 5733 5739 5741 5745 5747 5751 5755 5759 5764 5766 5770 5773 5776 5778 5781 5782 5785 5785 5785 5786 5786
5770 5769 5768 5765 5763 5760 5758 5756 5752 5747 5741 5734 5729 5724 5718 5715 5713 5711 5709 5710 5713 5714 5715 5718 5720 5722 5726 5729 5731 5733 5735 5739 5743 5745 5749 5754 5758 5760 5762 5767 5769 5772 5775 5777 5779 5780 5779 5779 5779
5767 5766 5764 5762 5760 5758 5757 5754 5751 5749 5744 5737 5732 5729 5723 5719 5717 5716 5715 5714 5714 5716 5720 5720 5723 5724 5727 5728 5728 5730 5732 5734 5736 5740 5744 5750 5753 5755 5758 5762 5763 5765 5767 5769 5770 5771 5772 5772 5770
5764 5763 5761 5759 5758 5755 5755 5754 5750 5748 5745 5740 5735 5731 5728 5724 5721 5720 5719 5719 5718 5718 5718 5720 5723 5725 5724 5726 5729 5730 5730 5731 5733 5735 5739 5744 5748 5750 5753 5755 5757 5758 5759 5760 5761 5763 5763 5763 5763
5760 5760 5758 5757 5756 5753 5752 5753 5749 5746 5745 5741 5737 5734 5732 5729 5725 5723 5721 5721 5720 5720 5721 5721 5721 5721 5724 5728 5730 5732 5732 5734 5736 5736 5739 5737 5741 5744 5748 5752 5752 5753 5752 5754 5753 5754 5753 5754 5754
Wind_Speed
11 13 14 14 14 14 18 20 24 24 23 25 26 28 31 33 33 32 31 28 26 24 26 24 22 21 19 18 16 14 13 13 14 13 11 10 9 7 7 6 5 5 5 5 5 5 4 4 5
15 15 16 16 17 17 21 25 27 27 29 30 31 31 33 32 32 32 33 33 30 27 26 27 26 25 23 22 20 17 15 15 14 13 12 9 8 8 8 8 7 6 7 6 7 6 6 5 4
16 17 18 18 19 21 24 28 30 31 33 34 36 37 35 35 35 34 32 35 35 31 28 29 28 28 28 26 24 20 19 17 16 15 14 11 10 9 8 9 8 7 6 6 8 6 6 6 5
17 18 19 18 21 24 27 29 31 33 36 37 39 41 40 37 36 36 34 35 37 35 33 29 30 31 30 30 29 25 23 21 19 17 17 14 12 11 9 9 8 8 7 7 7 6 6 5 6
17 19 20 20 24 26 28 30 32 33 37 39 39 39 38 38 39 36 36 37 38 38 36 33 30 31 32 33 31 30 26 24 22 20 19 18 15 13 10 9 8 8 8 8 6 6 7 8 8
17 20 21 23 25 27 30 31 34 36 38 41 40 40 38 36 35 36 36 39 39 40 40 32 35 32 33 34 35 33 31 28 26 24 22 21 19 16 14 11 9 8 8 8 6 5 5 6 5
18 21 22 23 25 28 31 34 36 37 38 38 37 38 38 35 32 31 30 34 36 38 40 38 34 35 34 35 38 36 35 34 30 27 25 24 23 21 18 14 12 10 9 9 6 6 6 5 6
20 21 21 23 25 29 32 35 36 36 35 34 35 37 36 37 35 30 29 33 34 38 41 39 40 36 37 33 37 40 38 38 35 32 29 28 26 25 22 19 15 13 12 11 8 8 8 7 7
18 20 21 22 25 30 33 35 38 37 34 33 34 36 35 37 38 35 33 32 37 39 38 44 45 40 36 40 39 41 41 40 39 35 33 30 29 29 25 22 19 16 16 13 12 12 11 10 10
19 20 21 23 27 28 32 34 37 34 33 33 35 39 41 39 37 34 34 36 37 43 46 41 49 41 39 41 45 44 37 42 42 38 36 34 33 31 29 26 22 19 19 16 15 15 15 13 12
17 21 22 24 27 28 31 35 34 31 31 33 34 34 36 39 41 39 38 40 42 42 48 52 48 49 45 43 47 51 45 49 44 41 38 36 34 33 31 28 25 22 22 19 18 19 18 16 15
19 21 23 25 27 29 32 35 37 33 29 30 32 30 32 35 35 39 41 41 43 46 45 54 54 54 52 54 50 60 21 43 44 45 40 38 37 35 32 30 27 23 24 23 21 21 20 18 17
19 21 23 26 28 31 34 37 34 32 27 29 29 29 29 31 34 36 37 38 41 46 49 50 51 56 60 60 53 57 51 44 45 47 42 40 38 36 33 30 27 25 25 25 24 23 21 20 18
19 21 23 25 28 32 35 38 37 34 30 27 30 29 32 34 32 32 34 35 35 40 41 43 45 45 55 60 56 53 49 54 47 48 44 42 39 36 34 32 28 26 26 26 24 23 22 21 20
18 20 22 23 28 31 35 37 36 34 32 32 30 30 31 31 35 37 35 34 35 33 35 35 37 38 39 53 59 24 43 40 40 50 44 43 40 38 35 32 29 27 27 26 24 24 23 22 21
17 19 22 25 28 30 33 35 32 30 27 31 33 32 32 34 35 36 35 34 33 35 33 31 31 28 32 42 52 39 34 39 45 49 46 43 40 38 36 32 29 27 26 25 25 24 23 21 20
17 18 20 23 26 30 33 33 30 29 31 33 30 27 29 30 32 33 40 36 31 30 33 30 30 31 24 36 44 55 38 36 34 45 46 41 38 36 34 32 30 29 28 28 26 24 23 22 22
18 17 20 23 27 29 32 33 31 32 34 34 31 32 32 35 35 32 31 35 35 29 28 31 27 27 20 23 46 38 39 47 34 41 46 38 36 36 35 34 32 31 30 29 27 25 25 24 24
17 17 20 22 25 27 30 33 32 33 36 35 34 35 36 31 32 36 32 24 31 29 24 25 24 23 19 19 34 33 22 42 41 39 43 40 35 34 35 39 34 35 34 30 27 26 26 27 28
16 17 19 21 22 24 27 31 32 33 37 36 40 35 34 33 28 24 25 23 21 24 22 21 21 22 15 12 29 24 21 22 29 37 35 45 41 36 37 36 33 34 33 30 29 28 28 30 32
16 17 18 19 21 23 24 26 28 30 36 38 35 36 36 30 29 17 13 17 15 21 20 18 20 21 17 17 17 15 20 19 16 21 26 40 39 42 38 36 38 37 34 32 30 31 34 33 33
16 17 17 18 20 21 23 23 26 28 35 37 33 36 32 30 22 2 10 11 9 15 19 15 17 17 18 16 19 14 20 22 21 20 27 35 34 36 40 44 42 34 33 34 35 35 36 35 34
16 16 16 18 19 19 21 24 26 27 32 33 31 33 28 29 18 13 18 16 7 11 16 14 15 15 18 13 13 15 19 24 18 24 30 27 29 48 44 42 40 36 38 40 37 37 35 36 38
16 15 15 17 18 18 19 22 24 26 30 32 30 30 30 23 20 20 17 12 8 12 15 14 14 14 16 16 16 17 17 22 27 30 22 28 21 25 41 43 39 34 31 28 33 35 38 39 40
17 16 16 15 16 18 18 19 22 24 27 29 30 28 26 25 17 11 13 11 10 14 13 12 12 11 11 14 15 15 17 22 26 29 33 34 27 22 24 26 33 32 33 31 34 37 38 40 39
14 15 16 15 15 16 16 17 18 20 24 26 29 27 26 22 22 17 11 9 14 15 13 13 11 9 10 11 12 16 16 21 24 21 24 32 35 33 20 30 33 33 32 31 32 33 35 37 39
14 14 15 14 14 15 14 15 16 18 20 23 26 28 26 25 22 19 16 13 11 11 12 11 12 12 11 11 13 14 15 17 19 17 14 22 21 23 25 26 21 29 35 34 28 30 32 33 36
13 13 12 11 12 14 14 14 14 14 16 20 22 25 26 24 21 19 16 14 13 11 10 9 8 10 13 15 15 17 19 18 14 13 10 12 18 12 17 22 26 30 30 32 33 38 42 41 40
10 8 8 9 11 14 13 13 13 12 13 15 18 21 22 22 19 17 13 11 11 10 8 8 8 9 10 14 14 11 15 20 20 21 22 19 15 12 10 23 32 34 34 33 35 36 35 37 41
10 9 9 9 10 12 13 11 13 12 11 12 14 16 17 16 17 16 13 10 8 7 6 6 5 4 6 10 13 14 14 16 21 21 16 23 19 16 15 22 29 29 28 30 29 32 34 37 39
Wind_Direction
269 264 265 273 278 280 276 271 269 272 272 269 267 266 267 266 264 261 259 246 242 234 234 234 241 244 245 248 239 238 245 245 244 244 245 247 245 242 241 235 240 258 272 282 287 288 306 323 335
269 273 277 284 286 283 281 281 281 285 283 280 275 269 269 270 271 264 261 260 249 239 237 236 233 237 242 244 244 238 241 247 247 242 238 234 235 236 241 246 247 257 267 272 272 276 284 292 308
269 278 284 289 291 286 286 284 285 286 284 281 279 277 272 269 269 269 265 263 259 250 233 236 235 235 236 240 242 239 238 239 243 244 241 231 230 230 238 249 254 255 256 262 263 274 281 284 291
277 282 286 291 287 286 286 285 288 288 284 282 280 278 275 271 264 266 263 260 260 258 251 234 234 237 236 235 239 235 237 239 238 240 239 232 229 232 235 242 249 249 247 259 267 269 274 273 266
281 286 289 288 286 285 286 287 285 283 283 283 280 276 273 271 267 256 256 255 254 254 254 248 236 236 237 237 234 236 234 234 238 237 238 231 228 233 231 232 238 242 242 248 258 270 268 270 268
289 284 286 286 286 286 285 284 285 286 286 283 278 274 269 264 262 261 251 250 250 248 248 250 241 233 236 237 236 235 234 234 232 236 235 232 226 231 228 227 233 237 245 244 240 250 254 264 267
287 282 283 287 289 287 287 288 290 293 289 282 276 273 273 267 259 254 245 245 247 244 244 243 247 239 238 239 238 234 232 232 233 232 234 232 227 231 230 228 233 238 241 245 231 226 228 240 261
280 282 288 290 289 290 290 296 303 299 294 285 275 269 265 263 259 254 253 240 239 243 240 242 244 248 237 245 246 237 233 232 230 231 230 233 226 230 231 231 232 237 237 244 236 227 230 228 245
280 288 290 291 292 292 298 306 307 305 297 283 270 267 265 262 259 252 249 249 242 237 240 237 242 241 244 241 247 246 235 231 230 229 231 231 230 229 234 235 232 233 237 238 246 239 235 236 243
285 290 293 294 294 298 304 309 309 307 299 283 272 265 260 258 256 254 249 251 251 239 229 231 235 237 233 240 238 244 249 232 230 225 229 229 230 226 228 231 232 234 238 236 240 244 241 244 251
289 293 297 299 302 305 310 311 312 306 295 286 277 273 267 256 251 252 252 249 249 245 238 239 231 231 230 236 242 244 240 241 227 224 225 228 230 229 228 226 225 228 237 237 238 244 244 242 247
292 296 300 303 307 312 314 313 313 308 298 286 281 279 272 270 257 249 251 255 253 252 244 239 240 241 239 244 226 240 199 243 231 217 220 224 228 230 229 228 223 222 230 235 238 243 245 244 246
291 298 302 308 314 317 317 319 318 308 297 289 284 279 278 274 270 263 258 250 250 250 248 241 244 245 240 244 228 239 244 220 225 213 216 221 225 227 229 230 227 223 228 233 237 239 243 246 248
293 299 306 311 317 318 320 320 316 312 305 297 292 287 278 275 271 268 262 254 251 253 247 246 247 252 248 246 239 241 242 225 226 211 211 218 222 223 224 226 227 225 229 234 238 241 241 245 249
294 302 308 315 317 319 321 318 320 317 314 306 302 297 287 280 273 267 265 258 249 246 246 248 250 252 251 247 245 210 206 219 223 208 210 216 219 221 221 222 222 224 230 237 241 243 243 247 251
295 302 312 317 319 318 322 322 323 317 313 308 304 293 284 277 272 271 265 259 253 248 243 244 251 252 250 252 250 216 203 211 219 205 207 213 216 220 221 220 219 223 230 239 244 247 248 251 255
291 303 314 314 316 321 325 326 326 324 322 320 316 306 298 288 277 269 264 259 257 250 243 241 239 243 249 251 256 211 206 215 217 212 206 212 213 217 219 219 219 222 228 237 244 247 250 252 255
293 305 311 317 319 323 326 330 333 331 331 326 317 311 301 294 286 273 265 256 252 251 239 230 233 241 245 255 254 230 219 220 229 222 205 208 210 215 218 220 220 225 229 235 239 243 248 251 253
289 300 310 315 319 324 330 336 338 335 335 327 319 313 307 303 283 275 265 255 249 247 241 226 225 234 240 262 246 250 220 220 220 218 209 207 212 217 220 220 219 224 227 231 236 238 241 247 254
285 296 304 310 318 326 336 338 342 341 336 333 331 331 327 319 308 282 258 247 241 242 236 224 216 219 204 227 248 241 235 201 212 217 219 208 211 210 219 222 229 228 232 234 235 238 241 246 252
284 292 299 309 319 327 340 342 346 343 340 339 338 335 331 326 316 285 244 227 220 230 225 214 206 209 208 226 242 236 207 193 216 217 226 221 214 216 219 221 221 233 234 236 239 243 245 247 253
280 288 299 310 319 328 338 351 351 348 345 347 343 340 347 349 347 208 168 175 192 210 214 213 203 190 204 214 224 204 215 217 205 214 225 219 215 227 223 229 230 232 235 237 238 243 248 251 254
277 289 301 310 317 325 341 349 354 356 351 354 357 360 3 13 27 103 133 126 138 195 198 198 205 193 201 204 231 235 210 218 215 214 233 220 213 213 227 228 234 237 243 246 243 249 248 251 255
276 288 299 310 318 325 342 351 357 358 360 359 4 14 15 31 56 101 126 119 159 176 189 192 200 193 200 201 211 225 228 229 231 232 203 227 203 220 224 227 234 240 242 238 243 247 251 253 256
280 291 298 308 314 327 342 350 359 0 4 4 7 15 19 29 50 68 93 137 155 163 171 174 184 189 200 205 214 231 238 237 235 240 250 246 211 211 210 228 239 232 238 251 253 254 257 253 254
283 293 299 307 319 328 337 347 359 3 6 10 9 17 33 38 45 65 74 108 134 144 158 168 170 186 192 206 213 233 243 245 249 251 259 254 239 235 261 233 232 243 250 246 251 253 255 258 264
281 293 295 303 316 325 335 343 359 6 8 14 17 12 27 41 47 60 76 85 107 134 145 154 167 173 186 196 197 208 211 230 241 252 263 265 261 274 266 256 255 240 247 246 251 258 257 256 268
282 290 294 304 315 321 337 341 350 7 11 17 18 16 18 31 44 51 71 84 92 99 118 135 149 160 177 190 195 188 186 181 192 206 220 248 258 249 267 242 239 241 238 246 252 258 260 262 264
273 288 297 309 319 320 335 336 342 359 14 22 23 20 21 23 34 39 53 69 89 108 123 133 150 177 199 202 193 184 184 175 173 180 185 193 212 234 269 232 235 238 241 245 251 257 263 265 265
261 268 291 310 323 327 328 337 339 352 6 19 29 28 28 26 26 33 30 34 54 85 118 142 169 191 207 204 198 190 188 183 186 172 191 180 184 198 219 240 236 240 243 249 255 261 265 268 266